Wind_Speed
47 46 45 44 43 42 41 40 38 37 37 36 34 35 35 34 33 33 33 33 32 32 31 30 29 29 29 29 29 29 29 29 29 29 29 29 29 28 28 28 28 28 27
48 48 47 46 45 45 44 43 41 40 39 38 37 36 36 36 35 35 34 34 34 33 33 32 31 31 31 30 31 31 31 30 30 31 31 31 31 30 30 30 30 30 30
51 50 49 49 48 47 46 45 44 43 42 41 40 39 38 38 37 36 36 36 36 35 34 34 34 33 33 33 33 33 33 33 33 33 33 33 33 32 32 32 32 32 32
53 52 52 52 51 50 48 47 46 45 44 44 43 42 41 40 39 38 38 37 37 37 36 36 36 36 35 35 35 34 34 34 34 34 34 34 34 34 34 34 34 34 33
55 54 54 53 53 52 51 50 49 48 47 46 46 45 44 43 42 40 39 39 39 38 37 37 37 38 37 37 37 37 36 36 36 36 36 35 36 36 36 36 36 36 36
54 55 55 55 55 54 53 52 51 50 49 48 48 47 46 45 45 42 41 40 41 40 40 39 39 39 39 39 39 39 39 39 38 38 38 38 38 38 38 38 38 39 39
53 53 53 54 55 55 55 53 53 53 51 50 49 48 48 47 47 44 43 42 42 42 42 42 41 41 40 41 41 41 41 41 41 41 41 41 41 40 41 41 41 41 42
52 53 53 54 54 55 55 54 54 53 52 51 50 49 49 49 49 47 45 44 43 43 43 43 43 43 42 42 43 43 43 43 43 43 43 43 43 43 43 43 43 44 44
51 53 54 54 53 53 53 54 53 52 52 52 52 51 51 51 48 47 45 45 45 45 44 44 44 44 45 44 44 45 45 45 45 46 46 46 46 45 45 45 45 46 46
49 51 52 53 54 53 53 52 52 53 54 54 54 53 53 51 50 48 47 47 46 46 46 46 47 46 46 46 46 46 47 47 48 47 47 47 47 47 46 46 46 47 46
47 48 49 50 52 52 52 52 52 52 53 54 53 52 52 53 52 51 50 50 50 48 48 48 48 49 49 49 48 48 48 48 48 48 48 48 48 48 47 47 46 45 45
43 45 47 48 49 50 50 51 52 52 51 51 52 53 53 52 52 52 52 51 51 49 49 49 50 50 51 51 50 49 48 48 48 49 49 49 49 48 48 47 47 46 46
42 42 43 45 47 48 49 50 51 51 51 51 51 52 52 52 52 52 53 52 51 50 50 50 50 50 51 51 50 49 48 48 49 49 49 49 50 49 48 48 48 48 49
38 39 40 42 44 46 47 48 49 50 50 51 51 51 51 52 53 53 53 53 52 51 50 51 50 50 50 51 51 50 50 50 50 50 50 50 50 50 50 50 49 49 50
35 36 37 39 41 44 46 46 46 47 48 50 50 50 50 51 52 52 52 51 52 52 50 50 51 53 52 51 51 52 52 52 52 51 51 51 50 51 50 50 50 49 50
32 32 33 36 38 40 43 45 46 47 47 48 48 48 49 49 50 51 51 51 51 52 52 51 52 53 52 53 53 54 54 53 53 53 53 51 50 50 50 50 50 50 50
29 30 31 32 34 36 39 41 43 45 47 48 47 48 48 49 48 50 51 51 52 53 54 53 52 52 53 54 54 53 53 52 52 52 52 52 51 50 51 51 51 51 51
27 29 30 30 31 33 36 38 40 44 46 46 45 46 48 49 49 50 51 52 52 52 53 53 53 53 54 54 54 54 54 52 52 52 51 52 52 52 52 52 52 52 51
24 27 28 29 30 31 33 35 38 41 42 42 43 45 46 48 48 49 50 51 52 53 53 54 54 54 54 54 53 53 54 53 52 52 52 53 53 53 53 53 53 53 52
20 22 24 25 27 29 31 33 36 38 39 41 42 43 44 45 46 47 48 50 50 52 52 52 52 52 51 51 52 52 52 52 51 50 51 52 52 53 53 54 54 53 51
19 20 22 23 26 27 29 30 31 34 37 39 39 40 42 44 45 46 47 48 49 50 50 49 49 49 48 47 48 48 49 49 48 48 49 50 50 51 51 52 53 52 51
18 20 22 24 26 26 28 29 30 33 35 37 39 41 42 44 44 45 46 47 46 47 47 47 47 47 46 46 46 46 47 47 46 46 47 48 49 50 50 50 51 51 50
20 22 23 24 25 27 28 29 31 33 35 36 37 39 41 43 43 44 44 44 44 44 45 45 45 44 44 44 45 44 45 45 44 44 45 45 46 47 48 48 48 48 47
21 22 24 25 27 28 29 30 31 33 34 36 38 38 40 41 41 42 43 42 42 42 43 44 44 44 44 43 44 44 45 45 44 43 43 44 44 45 45 46 46 46 45
23 25 26 28 29 28 29 30 31 32 34 36 37 37 38 38 39 40 41 41 41 41 42 42 43 43 44 44 44 45 45 45 44 43 43 44 43 43 43 43 42 43 43
27 28 29 30 30 30 30 30 31 32 33 33 34 36 37 38 39 40 40 40 40 40 40 41 42 41 41 42 42 43 43 42 42 42 41 42 41 42 41 40 40 40 40
Wind_Direction
255 255 255 255 256 256 256 255 256 257 258 258 260 260 261 262 263 263 263 265 266 267 268 269 269 271 272 272 274 274 275 278 279 281 284 286 288 289 291 293 294 296 297
255 254 254 254 255 255 254 254 255 255 256 257 258 260 261 262 263 264 264 264 265 266 267 268 269 270 271 272 274 275 276 278 280 281 283 285 286 287 288 290 291 292 294
254 254 253 253 254 254 253 253 254 254 255 256 258 259 261 262 263 263 264 265 265 265 265 266 268 270 271 272 274 275 276 278 279 281 283 284 284 286 287 287 289 290 291
254 254 253 253 253 253 252 253 253 253 255 255 257 258 260 262 262 263 264 266 265 264 265 265 268 270 271 271 273 275 276 277 278 280 281 282 282 283 285 285 287 288 290
254 254 253 253 252 251 251 252 253 253 254 255 256 257 258 260 261 263 265 266 265 264 264 265 267 269 270 271 273 274 275 277 278 279 280 280 281 282 283 283 285 287 288
253 252 252 253 252 250 250 251 252 252 254 255 256 256 257 258 259 260 263 264 264 264 263 264 267 269 270 270 272 274 275 276 277 278 278 279 280 280 281 282 284 286 287
252 251 252 252 251 250 250 250 251 251 252 253 255 256 256 257 258 258 260 261 263 264 264 264 266 268 270 271 272 274 275 275 276 276 277 277 278 279 280 281 283 284 285
252 251 251 251 250 249 248 249 250 251 251 253 254 255 256 256 257 258 259 260 261 262 263 264 266 267 269 271 272 273 275 275 275 275 276 276 277 278 279 280 281 283 285
252 251 250 249 249 249 248 249 249 250 251 252 253 254 255 256 255 256 258 259 260 261 263 264 265 268 269 270 271 273 274 274 275 275 274 275 276 278 279 280 282 283 285
253 251 249 249 249 248 247 247 248 250 251 251 252 253 254 255 255 253 256 258 259 261 262 264 266 267 269 271 271 272 274 274 275 275 275 275 275 277 279 281 283 284 285
255 253 251 249 247 247 247 247 248 250 251 252 252 252 253 255 255 255 255 257 259 261 262 264 267 268 269 270 272 273 274 274 275 275 275 275 276 277 279 281 282 283 284
255 253 251 249 248 247 247 247 248 250 251 252 253 252 253 254 254 256 258 258 259 260 261 264 267 269 269 270 271 272 272 273 274 275 275 275 276 278 280 281 282 282 283
255 253 252 251 249 247 247 247 247 250 252 252 253 252 252 253 253 256 258 259 260 261 262 265 267 269 270 270 271 272 272 273 275 275 275 275 276 277 278 279 281 282 282
254 253 253 251 250 249 248 248 249 250 251 252 252 251 251 252 253 255 257 259 259 261 262 265 267 269 271 271 271 272 273 274 274 274 275 275 276 277 278 279 281 282 282
256 256 255 255 253 251 249 248 249 250 251 251 251 251 252 254 255 256 257 259 261 262 264 266 268 269 270 271 272 273 273 274 274 274 275 276 275 277 279 279 279 280 281
257 258 258 257 254 252 251 250 250 251 252 253 252 253 253 255 255 257 259 261 263 264 265 266 267 269 269 270 271 272 273 274 274 274 275 274 276 278 278 279 279 279 280
258 260 261 258 256 254 252 251 253 253 254 253 252 253 253 255 258 260 261 262 263 264 266 265 267 267 268 269 270 272 273 274 274 274 274 273 275 277 277 277 278 279 279
263 263 263 261 259 257 254 253 253 254 256 254 254 255 255 256 259 261 262 264 264 266 267 266 267 267 268 269 270 271 272 273 273 274 274 273 274 275 276 276 277 278 279
267 267 267 264 262 261 259 255 255 255 257 257 257 258 256 257 259 262 264 266 266 267 268 268 268 268 269 269 269 270 270 271 273 274 275 274 274 275 275 276 276 278 278
275 272 269 267 266 266 263 260 259 257 257 259 258 258 258 258 261 264 266 267 268 269 270 270 270 270 271 271 270 270 271 272 273 275 276 276 276 275 275 276 276 276 276
282 278 275 272 274 272 268 267 266 261 259 259 261 260 259 261 263 266 268 269 270 270 270 270 271 271 271 272 272 272 273 274 274 276 276 277 278 277 276 276 276 274 274
288 284 283 280 279 275 272 271 267 264 265 265 265 263 263 264 266 269 271 272 273 272 270 271 271 270 271 272 273 273 275 275 275 277 278 278 279 278 278 278 277 275 273
294 289 287 286 285 283 279 276 272 270 267 268 268 267 266 266 268 271 272 274 275 274 272 271 270 270 272 272 272 273 275 275 277 278 279 280 280 281 280 280 279 277 274
299 297 295 292 291 286 282 279 277 276 272 270 269 268 267 267 269 271 273 273 274 274 274 272 272 272 272 272 271 272 274 276 277 278 279 281 282 283 281 280 279 277 276
300 300 298 297 294 290 286 283 283 279 275 273 272 270 269 270 271 273 274 274 273 273 274 274 275 274 272 271 272 274 275 275 276 278 280 282 283 283 282 280 279 278 277
302 303 302 299 295 292 289 288 285 281 278 278 276 273 272 273 273 274 274 273 272 273 274 275 275 275 274 272 273 275 276 276 277 278 280 282 284 283 282 281 280 279 277
Height
5808 5810 5813 5815 5817 5819 5820 5822 5824 5826 5827 5828 5829 5830 5831 5831 5832 5832 5833 5833 5833 5833 5833 5833 5833 5832 5832 5831 5831 5830 5829 5828 5827 5826 5825 5824 5822 5821 5819 5817 5816 5814 5812
5798 5800 5803 5805 5807 5810 5811 5813 5816 5817 5819 5820 5821 5823 5823 5824 5825 5825 5826 5826 5826 5826 5826 5826 5826 5826 5826 5825 5825 5824 5823 5822 5821 5820 5819 5817 5816 5814 5813 5811 5809 5807 5805
5786 5789 5792 5795 5797 5799 5801 5804 5806 5808 5810 5811 5813 5815 5816 5816 5817 5818 5818 5819 5819 5819 5819 5819 5819 5819 5819 5818 5818 5817 5816 5815 5814 5813 5812 5810 5809 5807 5806 5804 5802 5801 5799
5774 5777 5780 5783 5786 5788 5791 5794 5797 5799 5801 5803 5804 5806 5807 5808 5809 5810 5810 5810 5811 5811 5811 5811 5811 5811 5811 5811 5810 5810 5809 5808 5807 5805 5804 5803 5801 5800 5798 5797 5795 5793 5791
5762 5765 5768 5771 5774 5777 5780 5783 5786 5789 5791 5793 5795 5796 5798 5799 5800 5801 5801 5802 5802 5802 5803 5803 5803 5803 5803 5803 5802 5802 5801 5800 5798 5797 5796 5794 5793 5791 5790 5788 5786 5785 5783
5749 5752 5755 5759 5762 5765 5769 5772 5775 5778 5780 5783 5784 5786 5788 5789 5790 5791 5792 5793 5793 5794 5794 5794 5794 5794 5794 5794 5794 5793 5792 5791 5789 5788 5787 5785 5784 5782 5781 5779 5777 5775 5774
5736 5739 5743 5746 5749 5753 5756 5760 5763 5766 5769 5771 5773 5775 5777 5779 5780 5782 5783 5783 5784 5784 5784 5785 5785 5785 5785 5784 5784 5783 5782 5781 5780 5778 5777 5775 5774 5772 5771 5769 5767 5766 5763
5723 5726 5730 5733 5737 5740 5744 5747 5750 5753 5756 5759 5762 5764 5766 5768 5769 5771 5772 5773 5774 5774 5774 5775 5775 5775 5775 5774 5774 5773 5772 5771 5769 5768 5766 5765 5764 5762 5760 5759 5757 5754 5752
5710 5714 5717 5721 5724 5728 5731 5735 5738 5741 5745 5747 5749 5752 5754 5757 5759 5760 5761 5762 5763 5764 5764 5764 5764 5764 5764 5763 5763 5762 5761 5760 5759 5757 5755 5754 5752 5751 5749 5747 5745 5743 5740
5698 5701 5704 5707 5711 5715 5719 5722 5726 5729 5732 5735 5737 5739 5742 5744 5747 5749 5750 5751 5752 5752 5753 5753 5752 5752 5752 5752 5751 5751 5749 5748 5747 5745 5744 5742 5740 5739 5737 5735 5733 5730 5728
5686 5688 5691 5694 5698 5702 5706 5710 5713 5716 5718 5721 5724 5726 5728 5731 5733 5736 5739 5740 5740 5741 5741 5741 5741 5740 5740 5739 5739 5738 5737 5736 5734 5733 5731 5730 5728 5726 5725 5723 5720 5718 5715
5674 5676 5678 5681 5685 5689 5693 5697 5700 5702 5705 5707 5710 5712 5715 5718 5721 5723 5725 5727 5728 5729 5728 5728 5728 5728 5727 5727 5726 5725 5724 5722 5721 5720 5718 5717 5715 5713 5712 5710 5707 5705 5703
5663 5665 5667 5669 5673 5676 5680 5683 5686 5690 5692 5694 5697 5700 5702 5705 5708 5710 5711 5713 5714 5716 5715 5715 5715 5714 5714 5713 5713 5712 5710 5709 5708 5706 5704 5703 5702 5700 5698 5696 5694 5692 5689
5653 5654 5656 5658 5661 5664 5667 5670 5673 5677 5679 5681 5684 5687 5689 5692 5694 5696 5698 5700 5700 5702 5702 5703 5702 5701 5701 5700 5699 5698 5696 5695 5694 5692 5690 5689 5688 5686 5684 5682 5681 5678 5676
5643 5644 5645 5647 5649 5652 5655 5658 5661 5664 5666 5668 5671 5674 5677 5679 5681 5683 5684 5685 5686 5687 5689 5690 5690 5689 5687 5686 5685 5683 5682 5680 5679 5677 5676 5675 5673 5672 5670 5668 5666 5664 5662
5633 5634 5635 5636 5637 5640 5643 5646 5649 5651 5653 5656 5658 5661 5664 5666 5667 5669 5670 5671 5671 5673 5674 5677 5676 5675 5673 5672 5670 5668 5667 5666 5664 5662 5661 5660 5658 5657 5655 5653 5651 5649 5646
5624 5625 5625 5626 5627 5629 5631 5634 5636 5639 5641 5643 5645 5648 5651 5653 5654 5655 5656 5657 5658 5658 5659 5661 5660 5660 5658 5657 5655 5654 5652 5651 5649 5647 5646 5645 5643 5642 5640 5638 5636 5634 5631
5616 5616 5616 5617 5618 5619 5621 5623 5625 5627 5629 5631 5633 5635 5637 5639 5640 5641 5642 5642 5643 5643 5643 5644 5645 5644 5643 5641 5640 5639 5637 5636 5634 5633 5631 5629 5627 5626 5624 5623 5621 5618 5616
5608 5608 5609 5609 5609 5610 5611 5612 5614 5616 5617 5619 5621 5623 5624 5626 5627 5628 5628 5628 5628 5628 5628 5628 5628 5627 5626 5624 5624 5623 5622 5621 5619 5618 5616 5613 5612 5610 5608 5606 5604 5602 5600
5602 5601 5602 5602 5602 5601 5602 5602 5603 5605 5606 5608 5609 5611 5612 5613 5614 5614 5614 5614 5613 5613 5612 5612 5612 5611 5609 5608 5607 5607 5607 5605 5604 5602 5599 5597 5595 5593 5592 5589 5588 5585 5582
5598 5597 5596 5595 5595 5594 5594 5594 5594 5595 5596 5597 5598 5599 5600 5600 5601 5600 5600 5600 5599 5599 5598 5597 5596 5596 5594 5593 5593 5592 5591 5590 5588 5585 5583 5581 5579 5577 5574 5571 5569 5567 5566
5593 5592 5590 5589 5588 5587 5586 5586 5585 5586 5586 5586 5587 5587 5587 5588 5588 5588 5587 5587 5586 5584 5584 5583 5582 5581 5581 5580 5579 5577 5576 5575 5574 5573 5568 5566 5562 5559 5557 5555 5553 5550 5549
5589 5587 5585 5583 5581 5580 5578 5577 5576 5575 5575 5575 5575 5575 5575 5576 5576 5575 5574 5573 5572 5570 5569 5568 5567 5567 5567 5566 5565 5564 5562 5559 5559 5557 5553 5550 5548 5544 5542 5539 5537 5534 5533
5583 5581 5579 5577 5574 5572 5570 5568 5566 5564 5564 5564 5564 5564 5564 5564 5563 5563 5562 5560 5558 5557 5556 5555 5555 5555 5553 5551 5550 5549 5547 5546 5545 5542 5538 5536 5534 5531 5528 5524 5522 5520 5518
5578 5576 5573 5570 5567 5564 5561 5558 5556 5554 5553 5553 5552 5552 5551 5551 5551 5550 5548 5547 5546 5544 5543 5542 5541 5540 5539 5538 5536 5535 5533 5531 5530 5529 5526 5523 5521 5517 5514 5510 5508 5505 5504
5572 5569 5566 5562 5558 5555 5552 5549 5546 5544 5543 5542 5541 5540 5539 5539 5538 5536 5534 5533 5533 5533 5531 5529 5528 5527 5526 5524 5523 5521 5520 5518 5517 5516 5514 5510 5507 5504 5501 5498 5495 5492 5490